[[{"header":{"parameterUnit":"m.s-1","parameterCategory":1,"la1":30.2992,"la2":30.254,"lo1":-89.0895,"lo2":-89.0443,"dy":0.0025,"dx":0.0025,"nx":19,"ny":19,"refTime":"2026-05-01T09:00:00:Z","depth":0,"parameterNumber":2,"parameterNumberName":"U-component_of_WINDS"},"data":[0,0,0,-6.6919,-6.6925,-6.7167,-6.7168,-6.7499,-6.7503,0,0,0,0,0,0,0,0,0,0,0,-6.6868,-6.6872,-6.6919,-6.6926,-6.7167,-6.7168,-6.7499,-6.7503,0,0,0,0,0,0,0,0,0,0,0,-6.6867,-6.6871,-6.6875,-6.6927,-6.7167,-6.7168,-6.7498,-6.7306,0,0,0,0,0,0,0,0,0,0,-6.7066,-6.7042,-6.687,-6.6875,-6.6928,-6.7167,-6.7168,-6.7296,-6.7318,-6.7402,0,-6.7488,0,-6.7502,-6.7527,-6.7528,0,0,0,-6.6908,-6.7024,-6.7071,-6.6875,-6.6931,-6.7167,-6.7053,-6.7308,-6.7333,-6.7431,-6.7493,-6.7504,-6.7507,-6.7529,-6.7531,-6.8092,-6.8095,0,0,-6.6895,-6.6921,-6.7055,-6.7088,-6.7061,-6.7046,-6.7061,-6.7322,-6.7389,-6.7494,-6.7512,-6.7513,-6.7532,-6.7535,-6.8089,-6.8093,0,0,0,-6.6868,-6.6913,-6.6953,-6.7076,-6.7118,-6.7053,-6.7071,-6.7377,-6.7388,-6.7515,-6.7517,-6.7534,-6.7538,-6.8085,-6.809,-6.8293,0,0,0,-6.6859,-6.6897,-6.6948,-6.6967,-6.7114,-6.7252,-6.712,-6.737,-6.7399,-6.7515,-6.7534,-6.7542,-6.8081,-6.8088,-6.8279,-6.8383,0,0,0,-6.6845,-6.6895,-6.6938,-6.6968,-6.7074,-6.7247,-6.7273,-6.7376,-6.7401,-6.7529,-6.7543,-6.8079,-6.8087,-6.8267,-6.8363,-6.8542,0,0,0,-6.6836,-6.7109,-6.6942,-6.7247,-6.7072,-6.7372,-6.7271,-6.7491,-6.7624,-6.7536,-6.8082,-6.809,-6.8263,-6.8351,-6.8529,-6.8701,-6.8775,0,0,-6.7195,-6.7154,-6.7331,-6.7188,-6.7527,-6.7333,-6.7698,-6.779,-6.7772,-6.7984,-6.7998,-6.8283,-6.8362,-6.854,-6.9171,-6.923,0,0,0,-6.7453,-6.7582,-6.7665,-6.7798,-6.7879,-6.7957,-6.7991,-6.8025,-6.8205,-6.789,-6.8393,-6.8439,-6.8542,-6.8623,-6.8673,-6.876,-6.8127,-6.8127,-6.8126,-6.8001,-6.7971,-6.8262,-6.8262,-6.839,-6.8424,-6.8524,-6.8574,-6.8499,-6.8619,-6.8684,-6.9071,-6.9167,-6.9204,-6.9296,-6.8768,-6.8769,-6.877,-6.877,-6.8527,-6.8705,-6.8605,-6.8854,-6.8817,-6.9021,-6.9062,-6.9004,-6.9185,-6.9019,-6.9108,-6.8934,-6.927,-6.9348,-6.8785,-6.8782,-6.878,-6.8779,-6.8778,-6.8886,-6.8967,-6.9007,-6.9197,-6.9344,-6.9328,-6.9511,-6.9467,-6.9427,-6.9515,-6.9579,-6.9576,-6.9569,-6.9548,-6.9549,-6.9551,-6.9552,-6.9553,-6.9554,-6.9244,-6.9283,-6.9446,-6.9558,-6.9638,-6.9736,-6.9772,-6.9847,-6.9918,-6.9872,-6.9872,-6.9788,-6.9309,-6.9191,-6.9575,-6.9571,-6.9568,-6.9566,-6.9565,-6.9796,-6.9665,-6.9917,-6.9998,-7.0124,-7.0274,-7.0217,-7.0373,-7.0427,-7.0518,-7.0414,-7.0066,-7.0017,-6.9977,-6.988,-7.0419,-7.0419,-7.0419,-7.0419,-7.0102,-7.0074,-7.0323,-7.0456,-7.0579,-7.0554,-7.0834,-7.0863,-7.0871,-7.0902,-7.0816,-7.0682,-7.0643,-7.0618,-7.0564,-7.0473,-7.115,-7.1151,-7.1151,-7.044,-7.0423,-7.0675,-7.0688,-7.0783,-7.0864,-7.1127,-7.1277,-7.1257,-7.118,-7.0925,-7.0895,-7.0677,-7.0608,-7.0529,-7.0446,-7.0278,0,0]},{"header":{"parameterUnit":"m.s-1","parameterCategory":1,"la1":30.2992,"la2":30.254,"lo1":-89.0895,"lo2":-89.0443,"dy":0.0025,"dx":0.0025,"nx":19,"ny":19,"refTime":"2026-05-01T09:00:00:Z","depth":0,"parameterNumber":3,"parameterNumberName":"V-component_of_WINDS"},"data":[0,0,0,-3.9793,-3.9792,-3.9722,-3.9722,-3.9629,-3.9629,0,0,0,0,0,0,0,0,0,0,0,-3.9817,-3.9817,-3.9794,-3.9792,-3.9722,-3.9722,-3.963,-3.9629,0,0,0,0,0,0,0,0,0,0,0,-3.9818,-3.9817,-3.9817,-3.9792,-3.9722,-3.9722,-3.963,-3.9682,0,0,0,0,0,0,0,0,0,0,-3.9751,-3.9777,-3.9817,-3.9817,-3.9791,-3.9722,-3.9722,-3.9685,-3.9679,-3.9662,0,-3.9651,0,-3.9638,-3.9623,-3.9622,0,0,0,-3.9789,-3.9782,-3.9761,-3.9817,-3.9791,-3.9722,-3.9753,-3.9682,-3.9675,-3.9654,-3.9649,-3.9646,-3.9637,-3.9622,-3.9622,-3.9538,-3.9538,0,0,-3.9792,-3.9806,-3.9765,-3.9757,-3.9772,-3.9755,-3.975,-3.9678,-3.9672,-3.9649,-3.9644,-3.9635,-3.9622,-3.9621,-3.9539,-3.9538,0,0,0,-3.9806,-3.9809,-3.9789,-3.976,-3.9748,-3.9753,-3.9748,-3.9676,-3.9668,-3.9643,-3.9634,-3.9621,-3.962,-3.9539,-3.9539,-3.954,0,0,0,-3.9808,-3.9817,-3.9791,-3.9798,-3.975,-3.9712,-3.9747,-3.9673,-3.9665,-3.9635,-3.9621,-3.9619,-3.9539,-3.9539,-3.954,-3.9537,0,0,0,-3.9821,-3.9818,-3.9809,-3.9799,-3.977,-3.9713,-3.9701,-3.9671,-3.966,-3.9622,-3.9619,-3.9539,-3.9539,-3.9541,-3.9538,-3.9517,0,0,0,-3.9838,-3.9812,-3.981,-3.9777,-3.9771,-3.9716,-3.9702,-3.966,-3.9628,-3.9621,-3.9539,-3.9539,-3.9541,-3.9539,-3.9518,-3.9501,-3.9496,0,0,-3.9813,-3.981,-3.9789,-3.9785,-3.9735,-3.9726,-3.9673,-3.963,-3.9613,-3.9563,-3.9561,-3.954,-3.9538,-3.9517,-3.9466,-3.9462,0,0,0,-3.9785,-3.9771,-3.9754,-3.9726,-3.9694,-3.9664,-3.9629,-3.9612,-3.9569,-3.9592,-3.9528,-3.9526,-3.9513,-3.9504,-3.95,-3.9486,-3.9536,-3.9536,-3.9536,-3.9769,-3.9749,-3.9712,-3.9683,-3.9655,-3.9617,-3.959,-3.956,-3.9549,-3.9533,-3.9518,-3.949,-3.948,-3.9477,-3.9463,-3.9509,-3.9509,-3.9509,-3.9509,-3.9729,-3.9703,-3.9687,-3.9645,-3.9622,-3.9585,-3.9545,-3.9537,-3.9495,-3.9501,-3.9488,-3.9494,-3.9474,-3.946,-3.9509,-3.9509,-3.9509,-3.9509,-3.9509,-3.9714,-3.9699,-3.968,-3.9634,-3.9599,-3.9568,-3.9529,-3.9509,-3.949,-3.9478,-3.9456,-3.9456,-3.9451,-3.9469,-3.9469,-3.9469,-3.9469,-3.9469,-3.9469,-3.9707,-3.9685,-3.9657,-3.9618,-3.9594,-3.9561,-3.9518,-3.9493,-3.9459,-3.9447,-3.9447,-3.9433,-3.9477,-3.9487,-3.9467,-3.9468,-3.9468,-3.9468,-3.9468,-3.9671,-3.9675,-3.9631,-3.9608,-3.9557,-3.9521,-3.9496,-3.9445,-3.9421,-3.94,-3.9388,-3.9425,-3.942,-3.9422,-3.943,-3.9396,-3.9396,-3.9396,-3.9396,-3.9657,-3.9653,-3.9601,-3.9564,-3.9525,-3.9496,-3.944,-3.9404,-3.9367,-3.9349,-3.9351,-3.936,-3.9364,-3.9356,-3.9359,-3.9366,-3.9317,-3.9317,-3.9317,-3.9632,-3.9622,-3.9582,-3.9549,-3.9506,-3.9468,-3.9413,-3.9365,-3.9324,-3.9313,-3.9333,-3.9336,-3.9351,-3.9358,-3.9347,-3.9354,-3.9366,0,0]}]]